TimeCST,TemperatureF,Dew PointF,Humidity,Sea Level PressureIn,VisibilityMPH,Wind Direction,Wind SpeedMPH,Gust SpeedMPH,PrecipitationIn,Events,Conditions,WindDirDegrees,DateUTC
12:15 AM,33.8,29.5,84,30.13,5.0,SE,17.3,21.9,N/A,,Drizzle,130,2013-03-09 06:15:00
12:35 AM,33.3,29.7,87,30.12,5.0,SE,13.8,19.6,N/A,,Light Drizzle,140,2013-03-09 06:35:00
12:55 AM,33.8,29.7,85,30.11,7.0,SE,13.8,-,N/A,,Mostly Cloudy,140,2013-03-09 06:55:00
1:15 AM,34.0,29.7,84,30.10,7.0,SE,15.0,-,N/A,,Scattered Clouds,130,2013-03-09 07:15:00
1:35 AM,34.9,30.2,83,30.10,7.0,SE,12.7,-,N/A,,Scattered Clouds,140,2013-03-09 07:35:00
1:55 AM,34.9,29.3,80,30.09,10.0,SE,18.4,24.2,N/A,,Mostly Cloudy,140,2013-03-09 07:55:00
2:15 AM,34.9,29.3,80,30.08,10.0,SE,17.3,-,N/A,,Scattered Clouds,140,2013-03-09 08:15:00
2:35 AM,34.9,28.9,79,30.06,10.0,SE,16.1,21.9,N/A,,Clear,140,2013-03-09 08:35:00
2:55 AM,34.9,28.4,77,30.05,10.0,SSE,16.1,-,N/A,,Clear,150,2013-03-09 08:55:00
3:15 AM,34.9,28.4,77,30.05,10.0,SSE,15.0,21.9,N/A,,Scattered Clouds,150,2013-03-09 09:15:00
3:35 AM,34.9,29.1,79,30.04,10.0,SSE,15.0,20.7,N/A,Rain,Light Rain,150,2013-03-09 09:35:00
3:55 AM,34.9,30.0,82,30.04,5.0,SSE,12.7,-,N/A,Rain,Rain,150,2013-03-09 09:55:00
4:15 AM,34.9,30.2,83,30.05,7.0,SSE,13.8,-,N/A,Rain,Light Rain,160,2013-03-09 10:15:00
4:35 AM,34.3,30.6,86,30.06,3.0,SSE,9.2,-,0.02,Rain,Light Rain,160,2013-03-09 10:35:00
4:55 AM,33.1,30.2,89,30.06,3.0,SSE,15.0,18.4,0.04,Rain,Light Rain,160,2013-03-09 10:55:00
5:15 AM,33.8,30.7,89,30.03,3.0,SSE,15.0,-,0.01,Rain,Light Rain,150,2013-03-09 11:15:00
5:35 AM,32.9,30.6,91,30.04,3.0,SSE,12.7,-,0.03,Rain,Light Rain,160,2013-03-09 11:35:00
5:55 AM,32.7,30.7,92,30.03,2.5,SSE,15.0,20.7,0.05,Snow,Light Snow,150,2013-03-09 11:55:00
6:15 AM,33.3,31.5,93,30.01,2.0,SSE,16.1,21.9,0.01,Snow,Light Snow,150,2013-03-09 12:15:00
6:35 AM,33.8,31.6,92,30.00,4.0,SSE,18.4,23.0,0.01,Rain,Light Rain,150,2013-03-09 12:35:00
6:55 AM,34.9,32.4,91,30.00,5.0,SSE,18.4,23.0,0.01,Rain,Rain,150,2013-03-09 12:55:00
7:15 AM,34.9,32.2,90,29.99,3.0,SSE,19.6,26.5,N/A,Rain,Light Rain,150,2013-03-09 13:15:00
7:35 AM,34.9,32.2,90,29.99,4.0,SSE,18.4,25.3,N/A,,Drizzle,160,2013-03-09 13:35:00
7:55 AM,34.9,32.2,90,29.98,2.5,SSE,18.4,27.6,N/A,Rain,Rain,160,2013-03-09 13:55:00
8:15 AM,34.9,32.4,91,29.98,3.0,SSE,17.3,27.6,N/A,,Light Drizzle,160,2013-03-09 14:15:00
8:35 AM,34.7,32.2,91,29.96,2.5,SSE,17.3,25.3,N/A,Rain,Light Rain,150,2013-03-09 14:35:00
8:55 AM,33.8,31.6,92,29.96,3.0,SSE,18.4,24.2,N/A,,Overcast,160,2013-03-09 14:55:00
9:15 AM,33.8,31.6,92,29.95,3.0,SSE,17.3,25.3,N/A,,Overcast,160,2013-03-09 15:15:00
9:35 AM,34.7,32.2,91,29.94,3.0,South,17.3,25.3,N/A,,Overcast,170,2013-03-09 15:35:00
9:55 AM,34.9,32.4,91,29.94,3.0,South,11.5,-,N/A,,Overcast,170,2013-03-09 15:55:00
10:15 AM,34.9,32.4,91,29.93,3.0,South,12.7,-,N/A,,Overcast,170,2013-03-09 16:15:00
10:35 AM,34.9,32.2,90,29.92,3.0,SSE,15.0,19.6,N/A,,Overcast,160,2013-03-09 16:35:00
10:55 AM,34.9,32.2,90,29.91,2.5,South,15.0,20.7,N/A,,Overcast,170,2013-03-09 16:55:00
11:15 AM,34.9,32.5,91,29.90,1.8,SSE,17.3,21.9,N/A,Rain,Light Rain,160,2013-03-09 17:15:00
11:35 AM,34.9,32.5,91,29.89,2.0,SSE,15.0,-,N/A,Rain,Light Rain,160,2013-03-09 17:35:00
11:55 AM,34.9,32.5,91,29.87,2.5,South,16.1,25.3,0.01,Rain,Light Rain,170,2013-03-09 17:55:00
12:15 PM,34.9,32.5,91,29.88,3.0,South,19.6,25.3,0.01,Rain,Light Rain,170,2013-03-09 18:15:00
12:35 PM,34.9,32.5,91,29.85,2.5,South,19.6,24.2,0.04,Rain,Rain,170,2013-03-09 18:35:00
12:55 PM,34.9,32.5,91,29.84,2.5,South,18.4,24.2,0.05,Rain,Rain,170,2013-03-09 18:55:00
1:15 PM,34.9,32.5,91,29.83,2.5,SSE,17.3,23.0,0.04,Rain,Light Rain,160,2013-03-09 19:15:00
1:35 PM,34.9,32.9,92,29.81,2.0,SSE,13.8,23.0,0.07,Rain,Rain,160,2013-03-09 19:35:00
1:55 PM,34.9,32.9,92,29.80,2.5,SSE,13.8,18.4,0.09,Rain,Rain,160,2013-03-09 19:55:00
2:15 PM,34.9,32.9,92,29.79,2.5,SSE,13.8,17.3,0.02,Rain,Light Rain,150,2013-03-09 20:15:00
2:35 PM,34.9,32.9,92,29.79,2.5,SSE,16.1,20.7,0.03,Rain,Light Rain,160,2013-03-09 20:35:00
2:55 PM,34.9,32.5,91,29.77,4.0,SSE,18.4,24.2,0.03,Rain,Light Rain,160,2013-03-09 20:55:00
3:15 PM,34.9,32.5,91,29.77,2.5,SSE,15.0,-,0.01,Rain,Light Rain,160,2013-03-09 21:15:00
3:35 PM,34.9,32.5,91,29.76,2.5,SSE,15.0,25.3,0.03,Rain,Light Rain,160,2013-03-09 21:35:00
3:55 PM,34.9,32.5,91,29.77,3.0,South,12.7,17.3,0.04,Rain,Light Rain,170,2013-03-09 21:55:00
4:15 PM,34.9,32.5,91,29.77,3.0,South,15.0,19.6,0.01,Rain,Light Rain,170,2013-03-09 22:15:00
4:35 PM,34.9,32.9,92,29.78,3.0,South,11.5,-,0.02,Rain,Light Rain,170,2013-03-09 22:35:00
4:55 PM,34.9,32.9,92,29.77,2.5,SSE,11.5,-,0.03,Rain,Rain,160,2013-03-09 22:55:00
5:15 PM,34.9,32.9,92,29.76,2.5,SSE,13.8,-,0.01,Rain,Light Rain,160,2013-03-09 23:15:00
5:35 PM,34.9,32.9,92,29.77,2.0,SSE,5.8,-,0.02,Rain,Rain,150,2013-03-09 23:35:00
5:55 PM,34.9,32.9,92,29.77,2.5,SE,6.9,-,0.05,Rain,Light Rain,140,2013-03-09 23:55:00
6:15 PM,34.9,32.9,92,29.78,3.0,SSE,5.8,-,N/A,,Drizzle,150,2013-03-10 00:15:00
6:35 PM,34.9,32.9,92,29.79,3.0,Calm,Calm,-,N/A,Rain,Rain,0,2013-03-10 00:35:00
6:55 PM,34.9,32.9,92,29.79,2.5,Calm,Calm,-,0.01,Rain,Rain,0,2013-03-10 00:55:00
7:15 PM,34.9,32.9,92,29.78,1.8,ESE,3.5,-,0.01,Rain,Light Rain,110,2013-03-10 01:15:00
7:35 PM,34.9,32.9,92,29.77,1.8,SE,9.2,-,0.01,Rain,Rain,130,2013-03-10 01:35:00
7:55 PM,34.9,33.1,93,29.77,2.0,SE,5.8,-,0.01,,Light Drizzle,130,2013-03-10 01:55:00
8:15 PM,34.9,33.1,93,29.77,1.8,SE,6.9,-,N/A,Rain,Rain,140,2013-03-10 02:15:00
8:35 PM,34.9,33.1,93,29.76,1.5,SE,6.9,-,0.03,Rain,Rain,140,2013-03-10 02:35:00
8:55 PM,34.9,33.1,93,29.75,1.8,SE,11.5,-,0.05,Rain,Rain,140,2013-03-10 02:55:00
9:15 PM,36.0,34.5,94,29.73,2.5,SE,13.8,-,N/A,Rain,Rain,140,2013-03-10 03:15:00
9:35 PM,37.4,36.0,95,29.71,3.0,SSE,16.1,21.9,0.01,Rain,Rain,150,2013-03-10 03:35:00
9:55 PM,37.4,35.8,94,29.71,4.0,SSE,15.0,-,0.01,,Scattered Clouds,150,2013-03-10 03:55:00
10:15 PM,38.7,37.0,94,29.74,5.0,South,4.6,-,N/A,,Scattered Clouds,180,2013-03-10 04:15:00
10:35 PM,38.7,36.7,93,29.74,5.0,ESE,3.5,-,N/A,,Mostly Cloudy,120,2013-03-10 04:35:00
10:55 PM,37.6,35.6,93,29.75,3.0,Calm,Calm,-,N/A,,Overcast,0,2013-03-10 04:55:00
11:15 PM,37.4,35.6,93,29.74,3.0,SSE,3.5,-,N/A,,Mostly Cloudy,160,2013-03-10 05:15:00
11:35 PM,37.4,35.6,93,29.72,2.5,SE,3.5,-,N/A,,Overcast,130,2013-03-10 05:35:00
11:55 PM,35.2,33.3,92,29.71,1.0,ESE,5.8,-,N/A,,Overcast,120,2013-03-10 05:55:00